Year,Month,Day,Hour,Minute,Value (Times are PST for temperature in C)
2010,03,06,00,00,3.30
2010,03,06,00,01,3.30
2010,03,06,00,02,3.30
2010,03,06,00,03,3.30
2010,03,06,00,04,3.30
2010,03,06,00,05,3.30
2010,03,06,00,06,3.20
2010,03,06,00,07,3.20
2010,03,06,00,08,3.20
2010,03,06,00,09,3.20
2010,03,06,00,10,3.20
2010,03,06,00,11,3.20
2010,03,06,00,12,3.20
2010,03,06,00,13,3.20
2010,03,06,00,14,3.20
2010,03,06,00,15,3.20
2010,03,06,00,16,3.20
2010,03,06,00,17,3.20
2010,03,06,00,18,3.10
2010,03,06,00,19,3.10
2010,03,06,00,20,3.10
2010,03,06,00,21,3.10
2010,03,06,00,22,3.10
2010,03,06,00,23,3.00
2010,03,06,00,24,3.00
2010,03,06,00,25,3.00
2010,03,06,00,26,3.00
2010,03,06,00,27,3.00
2010,03,06,00,28,3.10
2010,03,06,00,29,3.10
2010,03,06,00,30,3.10
2010,03,06,00,31,3.10
2010,03,06,00,32,3.10
2010,03,06,00,33,3.10
2010,03,06,00,34,3.20
2010,03,06,00,35,3.10
2010,03,06,00,36,3.10
2010,03,06,00,37,3.10
2010,03,06,00,38,3.10
2010,03,06,00,39,3.10
2010,03,06,00,40,3.10
2010,03,06,00,41,3.10
2010,03,06,00,42,3.00
2010,03,06,00,43,3.00
2010,03,06,00,44,3.00
2010,03,06,00,45,3.00
2010,03,06,00,46,3.00
2010,03,06,00,47,2.90
2010,03,06,00,48,2.90
2010,03,06,00,49,2.90
2010,03,06,00,50,2.90
2010,03,06,00,51,2.90
2010,03,06,00,52,2.80
2010,03,06,00,53,2.80
2010,03,06,00,54,2.80
2010,03,06,00,55,2.80
2010,03,06,00,56,2.80
2010,03,06,00,57,2.80
2010,03,06,00,58,2.80
2010,03,06,00,59,2.80
2010,03,06,01,00,2.80
2010,03,06,01,01,2.70
2010,03,06,01,02,2.70
2010,03,06,01,03,2.70
2010,03,06,01,04,2.70
2010,03,06,01,05,2.70
2010,03,06,01,06,2.70
2010,03,06,01,07,2.70
2010,03,06,01,08,2.70
2010,03,06,01,09,2.70
2010,03,06,01,10,2.70
2010,03,06,01,11,2.70
2010,03,06,01,12,2.70
2010,03,06,01,13,2.70
2010,03,06,01,14,2.80
2010,03,06,01,15,2.80
2010,03,06,01,16,2.80
2010,03,06,01,17,2.80
2010,03,06,01,18,2.80
2010,03,06,01,19,2.70
2010,03,06,01,20,2.70
2010,03,06,01,21,2.70
2010,03,06,01,22,2.70
2010,03,06,01,23,2.60
2010,03,06,01,24,2.60
2010,03,06,01,25,2.60
2010,03,06,01,26,2.60
2010,03,06,01,27,2.60
2010,03,06,01,28,2.50
2010,03,06,01,29,2.50
2010,03,06,01,30,2.40
2010,03,06,01,31,2.40
2010,03,06,01,32,2.40
2010,03,06,01,33,2.40
2010,03,06,01,34,2.40
2010,03,06,01,35,2.40
2010,03,06,01,36,2.40
2010,03,06,01,37,2.40
2010,03,06,01,38,2.40
2010,03,06,01,39,2.40
2010,03,06,01,40,2.40
2010,03,06,01,41,2.40
2010,03,06,01,42,2.40
2010,03,06,01,43,2.40
2010,03,06,01,44,2.40
2010,03,06,01,45,2.40
2010,03,06,01,46,2.30
2010,03,06,01,47,2.30
2010,03,06,01,48,2.30
2010,03,06,01,49,2.30
2010,03,06,01,50,2.30
2010,03,06,01,51,2.30
2010,03,06,01,52,2.30
2010,03,06,01,53,2.20
2010,03,06,01,54,2.20
2010,03,06,01,55,2.20
2010,03,06,01,56,2.20
2010,03,06,01,57,2.20
2010,03,06,01,58,2.20
2010,03,06,01,59,2.20
2010,03,06,02,00,2.20
2010,03,06,02,01,2.20
2010,03,06,02,02,2.20
2010,03,06,02,03,2.20
2010,03,06,02,04,2.10
2010,03,06,02,05,2.10
2010,03,06,02,06,2.10
2010,03,06,02,07,2.10
2010,03,06,02,08,2.10
2010,03,06,02,09,2.10
2010,03,06,02,10,2.10
2010,03,06,02,11,2.10
2010,03,06,02,12,2.10
2010,03,06,02,13,2.10
2010,03,06,02,14,2.10
2010,03,06,02,15,2.20
2010,03,06,02,16,2.20
2010,03,06,02,17,2.20
2010,03,06,02,18,2.20
2010,03,06,02,19,2.20
2010,03,06,02,20,2.20
2010,03,06,02,21,2.20
2010,03,06,02,22,2.10
2010,03,06,02,23,2.10
2010,03,06,02,24,2.10
2010,03,06,02,25,2.10
2010,03,06,02,26,2.10
2010,03,06,02,27,2.10
2010,03,06,02,28,2.10
2010,03,06,02,29,2.10
2010,03,06,02,30,2.10
2010,03,06,02,31,2.10
2010,03,06,02,32,2.10
2010,03,06,02,33,2.10
2010,03,06,02,34,2.10
2010,03,06,02,35,2.10
2010,03,06,02,36,2.00
2010,03,06,02,37,2.00
2010,03,06,02,38,2.00
2010,03,06,02,39,2.00
2010,03,06,02,40,2.00
2010,03,06,02,41,2.00
2010,03,06,02,42,2.00
2010,03,06,02,43,2.10
2010,03,06,02,44,2.10
2010,03,06,02,45,2.10
2010,03,06,02,46,2.20
2010,03,06,02,47,2.20
2010,03,06,02,48,2.20
2010,03,06,02,49,2.20
2010,03,06,02,50,2.20
2010,03,06,02,51,2.20
2010,03,06,02,52,2.20
2010,03,06,02,53,2.10
2010,03,06,02,54,2.10
2010,03,06,02,55,2.10
2010,03,06,02,56,2.10
2010,03,06,02,57,2.10
2010,03,06,02,58,2.10
2010,03,06,02,59,2.10
2010,03,06,03,00,2.10
2010,03,06,03,01,2.10
2010,03,06,03,02,2.10
2010,03,06,03,03,2.10
2010,03,06,03,04,2.10
2010,03,06,03,05,2.10
2010,03,06,03,06,2.10
2010,03,06,03,07,2.10
2010,03,06,03,08,2.10
2010,03,06,03,09,2.10
2010,03,06,03,10,2.10
2010,03,06,03,11,2.10
2010,03,06,03,12,2.10
2010,03,06,03,13,2.10
2010,03,06,03,14,2.10
2010,03,06,03,15,2.10
2010,03,06,03,16,2.10
2010,03,06,03,17,2.00
2010,03,06,03,18,2.00
2010,03,06,03,19,2.00
2010,03,06,03,20,2.00
2010,03,06,03,21,1.90
2010,03,06,03,22,1.90
2010,03,06,03,23,1.90
2010,03,06,03,24,1.90
2010,03,06,03,25,1.90
2010,03,06,03,26,1.90
2010,03,06,03,27,1.90
2010,03,06,03,28,1.90
2010,03,06,03,29,1.90
2010,03,06,03,30,1.90
2010,03,06,03,31,1.90
2010,03,06,03,32,1.90
2010,03,06,03,33,1.90
2010,03,06,03,34,1.90
2010,03,06,03,35,1.90
2010,03,06,03,36,1.90
2010,03,06,03,37,1.90
2010,03,06,03,38,1.90
2010,03,06,03,39,1.90
2010,03,06,03,40,1.90
2010,03,06,03,41,1.90
2010,03,06,03,42,1.90
2010,03,06,03,43,1.90
2010,03,06,03,44,1.80
2010,03,06,03,45,1.90
2010,03,06,03,46,1.80
2010,03,06,03,47,1.80
2010,03,06,03,48,1.80
2010,03,06,03,49,1.80
2010,03,06,03,50,1.80
2010,03,06,03,51,1.80
2010,03,06,03,52,1.80
2010,03,06,03,53,1.80
2010,03,06,03,54,1.80
2010,03,06,03,55,1.80
2010,03,06,03,56,1.80
2010,03,06,03,57,1.80
2010,03,06,03,58,1.80
2010,03,06,03,59,1.80
2010,03,06,04,00,1.80
2010,03,06,04,01,1.80
2010,03,06,04,02,1.80
2010,03,06,04,03,1.80
2010,03,06,04,04,1.80
2010,03,06,04,05,1.80
2010,03,06,04,06,1.80
2010,03,06,04,07,1.90
2010,03,06,04,08,1.90
2010,03,06,04,09,1.90
2010,03,06,04,10,1.80
2010,03,06,04,11,1.80
2010,03,06,04,12,1.80
2010,03,06,04,13,1.80
2010,03,06,04,14,1.80
2010,03,06,04,15,1.90
2010,03,06,04,16,1.80
2010,03,06,04,17,1.80
2010,03,06,04,18,1.80
2010,03,06,04,19,1.80
2010,03,06,04,20,1.80
2010,03,06,04,21,1.80
2010,03,06,04,22,1.80
2010,03,06,04,23,1.80
2010,03,06,04,24,1.80
2010,03,06,04,25,1.80
2010,03,06,04,26,1.70
2010,03,06,04,27,1.70
2010,03,06,04,28,1.70
2010,03,06,04,29,1.70
2010,03,06,04,30,1.70
2010,03,06,04,31,1.60
2010,03,06,04,32,1.60
2010,03,06,04,33,1.60
2010,03,06,04,34,1.60
2010,03,06,04,35,1.60
2010,03,06,04,36,1.50
2010,03,06,04,37,1.50
2010,03,06,04,38,1.50
2010,03,06,04,39,1.50
2010,03,06,04,40,1.50
2010,03,06,04,41,1.50
2010,03,06,04,42,1.40
2010,03,06,04,43,1.40
2010,03,06,04,44,1.40
2010,03,06,04,45,1.40
2010,03,06,04,46,1.40
2010,03,06,04,47,1.40
2010,03,06,04,48,1.40
2010,03,06,04,49,1.40
2010,03,06,04,50,1.40
2010,03,06,04,51,1.40
2010,03,06,04,52,1.30
2010,03,06,04,53,1.30
2010,03,06,04,54,1.30
2010,03,06,04,55,1.30
2010,03,06,04,56,1.40
2010,03,06,04,57,1.40
2010,03,06,04,58,1.40
2010,03,06,04,59,1.50
2010,03,06,05,00,1.50
2010,03,06,05,01,1.50
2010,03,06,05,02,1.50
2010,03,06,05,03,1.40
2010,03,06,05,04,1.40
2010,03,06,05,05,1.40
2010,03,06,05,06,1.40
2010,03,06,05,07,1.50
2010,03,06,05,08,1.50
2010,03,06,05,09,1.50
2010,03,06,05,10,1.50
2010,03,06,05,11,1.50
2010,03,06,05,12,1.60
2010,03,06,05,13,1.50
2010,03,06,05,14,1.50
2010,03,06,05,15,1.50
2010,03,06,05,16,1.40
2010,03,06,05,17,1.40
2010,03,06,05,18,1.40
2010,03,06,05,19,1.40
2010,03,06,05,20,1.40
2010,03,06,05,21,1.40
2010,03,06,05,22,1.40
2010,03,06,05,23,1.40
2010,03,06,05,24,1.40
2010,03,06,05,25,1.40
2010,03,06,05,26,1.30
2010,03,06,05,27,1.30
2010,03,06,05,28,1.30
2010,03,06,05,29,1.30
2010,03,06,05,30,1.30
2010,03,06,05,31,1.30
2010,03,06,05,32,1.30
2010,03,06,05,33,1.30
2010,03,06,05,34,1.30
2010,03,06,05,35,1.30
2010,03,06,05,36,1.30
2010,03,06,05,37,1.30
2010,03,06,05,38,1.30
2010,03,06,05,39,1.30
2010,03,06,05,40,1.30
2010,03,06,05,41,1.30
2010,03,06,05,42,1.30
2010,03,06,05,43,1.30
2010,03,06,05,44,1.30
2010,03,06,05,45,1.30
2010,03,06,05,46,1.30
2010,03,06,05,47,1.30
2010,03,06,05,48,1.30
2010,03,06,05,49,1.30
2010,03,06,05,50,1.30
2010,03,06,05,51,1.30
2010,03,06,05,52,1.30
2010,03,06,05,53,1.30
2010,03,06,05,54,1.30
2010,03,06,05,55,1.30
2010,03,06,05,56,1.30
2010,03,06,05,57,1.30
2010,03,06,05,58,1.30
2010,03,06,05,59,1.30
2010,03,06,06,00,1.30
2010,03,06,06,01,1.30
2010,03,06,06,02,1.30
2010,03,06,06,03,1.30
2010,03,06,06,04,1.30
2010,03,06,06,05,1.30
2010,03,06,06,06,1.30
2010,03,06,06,07,1.30
2010,03,06,06,08,1.30
2010,03,06,06,09,1.30
2010,03,06,06,10,1.30
2010,03,06,06,11,1.30
2010,03,06,06,12,1.30
2010,03,06,06,13,1.30
2010,03,06,06,14,1.30
2010,03,06,06,15,1.40
2010,03,06,06,16,1.40
2010,03,06,06,17,1.40
2010,03,06,06,18,1.40
2010,03,06,06,19,1.40
2010,03,06,06,20,1.50
2010,03,06,06,21,1.50
2010,03,06,06,22,1.50
2010,03,06,06,23,1.50
2010,03,06,06,24,1.50
2010,03,06,06,25,1.40
2010,03,06,06,26,1.40
2010,03,06,06,27,1.40
2010,03,06,06,28,1.40
2010,03,06,06,29,1.30
2010,03,06,06,30,1.30
2010,03,06,06,31,1.30
2010,03,06,06,32,1.30
2010,03,06,06,33,1.30
2010,03,06,06,34,1.30
2010,03,06,06,35,1.30
2010,03,06,06,36,1.30
2010,03,06,06,37,1.30
2010,03,06,06,38,1.30
2010,03,06,06,39,1.30
2010,03,06,06,40,1.30
2010,03,06,06,41,1.20
2010,03,06,06,42,1.20
2010,03,06,06,43,1.20
2010,03,06,06,44,1.20
2010,03,06,06,45,1.30
2010,03,06,06,46,1.30
2010,03,06,06,47,1.30
2010,03,06,06,48,1.30
2010,03,06,06,49,1.30
2010,03,06,06,50,1.30
2010,03,06,06,51,1.30
2010,03,06,06,52,1.30
2010,03,06,06,53,1.30
2010,03,06,06,54,1.30
2010,03,06,06,55,1.20
2010,03,06,06,56,1.20
2010,03,06,06,57,1.20
2010,03,06,06,58,1.20
2010,03,06,06,59,1.20
2010,03,06,07,00,1.20
2010,03,06,07,01,1.20
2010,03,06,07,02,1.20
2010,03,06,07,03,1.20
2010,03,06,07,04,1.20
2010,03,06,07,05,1.20
2010,03,06,07,06,1.20
2010,03,06,07,07,1.20
2010,03,06,07,08,1.20
2010,03,06,07,09,1.20
2010,03,06,07,10,1.30
2010,03,06,07,11,1.30
2010,03,06,07,12,1.30
2010,03,06,07,13,1.30
2010,03,06,07,14,1.30
2010,03,06,07,15,1.30
2010,03,06,07,16,1.30
2010,03,06,07,17,1.30
2010,03,06,07,18,1.30
2010,03,06,07,19,1.30
2010,03,06,07,20,1.30
2010,03,06,07,21,1.30
2010,03,06,07,22,1.40
2010,03,06,07,23,1.40
2010,03,06,07,24,1.50
2010,03,06,07,25,1.50
2010,03,06,07,26,1.50
2010,03,06,07,27,1.60
2010,03,06,07,28,1.60
2010,03,06,07,29,1.60
2010,03,06,07,30,1.70
2010,03,06,07,31,1.70
2010,03,06,07,32,1.80
2010,03,06,07,33,1.80
2010,03,06,07,34,1.80
2010,03,06,07,35,1.80
2010,03,06,07,36,1.80
2010,03,06,07,37,1.80
2010,03,06,07,38,1.80
2010,03,06,07,39,1.80
2010,03,06,07,40,1.90
2010,03,06,07,41,2.00
2010,03,06,07,42,2.10
2010,03,06,07,43,2.10
2010,03,06,07,44,2.20
2010,03,06,07,45,2.20
2010,03,06,07,46,2.30
2010,03,06,07,47,2.30
2010,03,06,07,48,2.30
2010,03,06,07,49,2.40
2010,03,06,07,50,2.40
2010,03,06,07,51,2.50
2010,03,06,07,52,2.50
2010,03,06,07,53,2.50
2010,03,06,07,54,2.60
2010,03,06,07,55,2.60
2010,03,06,07,56,2.60
2010,03,06,07,57,2.60
2010,03,06,07,58,2.70
2010,03,06,07,59,2.70
2010,03,06,08,00,2.80
2010,03,06,08,01,2.80
2010,03,06,08,02,2.90
2010,03,06,08,03,2.90
2010,03,06,08,04,3.00
2010,03,06,08,05,3.10
2010,03,06,08,06,3.20
2010,03,06,08,07,3.30
2010,03,06,08,08,3.40
2010,03,06,08,09,3.40
2010,03,06,08,10,3.50
2010,03,06,08,11,3.60
2010,03,06,08,12,3.60
2010,03,06,08,13,3.70
2010,03,06,08,14,3.80
2010,03,06,08,15,3.80
2010,03,06,08,16,3.90
2010,03,06,08,17,4.00
2010,03,06,08,18,4.10
2010,03,06,08,19,4.20
2010,03,06,08,20,4.20
2010,03,06,08,21,4.30
2010,03,06,08,22,4.40
2010,03,06,08,23,4.50
2010,03,06,08,24,4.60
2010,03,06,08,25,4.70
2010,03,06,08,26,4.80
2010,03,06,08,27,4.90
2010,03,06,08,28,5.00
2010,03,06,08,29,5.10
2010,03,06,08,30,5.10
2010,03,06,08,31,5.20
2010,03,06,08,32,5.30
2010,03,06,08,33,5.40
2010,03,06,08,34,5.50
2010,03,06,08,35,5.60
2010,03,06,08,36,5.60
2010,03,06,08,37,5.70
2010,03,06,08,38,5.80
2010,03,06,08,39,5.80
2010,03,06,08,40,5.90
2010,03,06,08,41,6.00
2010,03,06,08,42,6.00
2010,03,06,08,43,6.10
2010,03,06,08,44,6.10
2010,03,06,08,45,6.20
2010,03,06,08,46,6.20
2010,03,06,08,47,6.30
2010,03,06,08,48,6.30
2010,03,06,08,49,6.40
2010,03,06,08,50,6.50
2010,03,06,08,51,6.50
2010,03,06,08,52,6.60
2010,03,06,08,53,6.70
2010,03,06,08,54,6.70
2010,03,06,08,55,6.70
2010,03,06,08,56,6.70
2010,03,06,08,57,6.80
2010,03,06,08,58,6.80
2010,03,06,08,59,6.80
2010,03,06,09,00,6.80
2010,03,06,09,01,6.80
2010,03,06,09,02,6.80
2010,03,06,09,03,6.80
2010,03,06,09,04,6.90
2010,03,06,09,05,6.90
2010,03,06,09,06,6.90
2010,03,06,09,07,6.90
2010,03,06,09,08,6.90
2010,03,06,09,09,7.00
2010,03,06,09,10,7.00
2010,03,06,09,11,7.10
2010,03,06,09,12,7.10
2010,03,06,09,13,7.20
2010,03,06,09,14,7.20
2010,03,06,09,15,7.20
2010,03,06,09,16,7.20
2010,03,06,09,17,7.20
2010,03,06,09,18,7.30
2010,03,06,09,19,7.30
2010,03,06,09,20,7.40
2010,03,06,09,21,7.40
2010,03,06,09,22,7.50
2010,03,06,09,23,7.60
2010,03,06,09,24,7.60
2010,03,06,09,25,7.70
2010,03,06,09,26,7.70
2010,03,06,09,27,7.70
2010,03,06,09,28,7.80
2010,03,06,09,29,7.80
2010,03,06,09,30,7.80
2010,03,06,09,31,7.80
2010,03,06,09,32,7.80
2010,03,06,09,33,7.80
2010,03,06,09,34,7.80
2010,03,06,09,35,7.70
2010,03,06,09,36,7.70
2010,03,06,09,37,7.70
2010,03,06,09,38,7.70
2010,03,06,09,39,7.60
2010,03,06,09,40,7.60
2010,03,06,09,41,7.60
2010,03,06,09,42,7.60
2010,03,06,09,43,7.50
2010,03,06,09,44,7.50
2010,03,06,09,45,7.50
2010,03,06,09,46,7.40
2010,03,06,09,47,7.40
2010,03,06,09,48,7.40
2010,03,06,09,49,7.40
2010,03,06,09,50,7.50
2010,03,06,09,51,7.50
2010,03,06,09,52,7.50
2010,03,06,09,53,7.50
2010,03,06,09,54,7.50
2010,03,06,09,55,7.50
2010,03,06,09,56,7.50
2010,03,06,09,57,7.50
2010,03,06,09,58,7.50
2010,03,06,09,59,7.50
2010,03,06,10,00,7.50
2010,03,06,10,01,7.40
2010,03,06,10,02,7.40
2010,03,06,10,03,7.40
2010,03,06,10,04,7.40
2010,03,06,10,05,7.40
2010,03,06,10,06,7.40
2010,03,06,10,07,7.50
2010,03,06,10,08,7.50
2010,03,06,10,09,7.50
2010,03,06,10,10,7.50
2010,03,06,10,11,7.50
2010,03,06,10,12,7.50
2010,03,06,10,13,7.50
2010,03,06,10,14,7.50
2010,03,06,10,15,7.50
2010,03,06,10,16,7.50
2010,03,06,10,17,7.50
2010,03,06,10,18,7.50
2010,03,06,10,19,7.50
2010,03,06,10,20,7.50
2010,03,06,10,21,7.50
2010,03,06,10,22,7.50
2010,03,06,10,23,7.50
2010,03,06,10,24,7.50
2010,03,06,10,25,7.50
2010,03,06,10,26,7.50
2010,03,06,10,27,7.50
2010,03,06,10,28,7.50
2010,03,06,10,29,7.40
2010,03,06,10,30,7.40
2010,03,06,10,31,7.40
2010,03,06,10,32,7.40
2010,03,06,10,33,7.40
2010,03,06,10,34,7.40
2010,03,06,10,35,7.40
2010,03,06,10,36,7.40
2010,03,06,10,37,7.40
2010,03,06,10,38,7.40
2010,03,06,10,39,7.40
2010,03,06,10,40,7.40
2010,03,06,10,41,7.40
2010,03,06,10,42,7.50
2010,03,06,10,43,7.50
2010,03,06,10,44,7.60
2010,03,06,10,45,7.60
2010,03,06,10,46,7.60
2010,03,06,10,47,7.60
2010,03,06,10,48,7.60
2010,03,06,10,49,7.60
2010,03,06,10,50,7.60
2010,03,06,10,51,7.70
2010,03,06,10,52,7.70
2010,03,06,10,53,7.70
2010,03,06,10,54,7.70
2010,03,06,10,55,7.70
2010,03,06,10,56,7.70
2010,03,06,10,57,7.70
2010,03,06,10,58,7.70
2010,03,06,10,59,7.60
2010,03,06,11,00,7.60
2010,03,06,11,01,7.60
2010,03,06,11,02,7.60
2010,03,06,11,03,7.60
2010,03,06,11,04,7.60
2010,03,06,11,05,7.60
2010,03,06,11,06,7.60
2010,03,06,11,07,7.60
2010,03,06,11,08,7.50
2010,03,06,11,09,7.50
2010,03,06,11,10,7.50
2010,03,06,11,11,7.40
2010,03,06,11,12,7.40
2010,03,06,11,13,7.40
2010,03,06,11,14,7.40
2010,03,06,11,15,7.30
2010,03,06,11,16,7.30
2010,03,06,11,17,7.30
2010,03,06,11,18,7.30
2010,03,06,11,19,7.30
2010,03,06,11,20,7.30
2010,03,06,11,21,7.30
2010,03,06,11,22,7.30
2010,03,06,11,23,7.30
2010,03,06,11,24,7.40
2010,03,06,11,25,7.40
2010,03,06,11,26,7.40
2010,03,06,11,27,7.30
2010,03,06,11,28,7.40
2010,03,06,11,29,7.40
2010,03,06,11,30,7.40
2010,03,06,11,31,7.50
2010,03,06,11,32,7.50
2010,03,06,11,33,7.50
2010,03,06,11,34,7.50
2010,03,06,11,35,7.40
2010,03,06,11,36,7.40
2010,03,06,11,37,7.40
2010,03,06,11,38,7.40
2010,03,06,11,39,7.40
2010,03,06,11,40,7.40
2010,03,06,11,41,7.40
2010,03,06,11,42,7.40
2010,03,06,11,43,7.40
2010,03,06,11,44,7.40
2010,03,06,11,45,7.40
2010,03,06,11,46,7.40
2010,03,06,11,47,7.40
2010,03,06,11,48,7.40
2010,03,06,11,49,7.40
2010,03,06,11,50,7.40
2010,03,06,11,51,7.50
2010,03,06,11,52,7.50
2010,03,06,11,53,7.50
2010,03,06,11,54,7.60
2010,03,06,11,55,7.60
2010,03,06,11,56,7.70
2010,03,06,11,57,7.70
2010,03,06,11,58,7.70
2010,03,06,11,59,7.70
2010,03,06,12,00,7.70
2010,03,06,12,01,7.80
2010,03,06,12,02,7.80
2010,03,06,12,03,7.80
2010,03,06,12,04,7.80
2010,03,06,12,05,7.80
2010,03,06,12,06,7.80
2010,03,06,12,07,7.80
2010,03,06,12,08,7.80
2010,03,06,12,09,7.80
2010,03,06,12,10,7.90
2010,03,06,12,11,7.90
2010,03,06,12,12,7.90
2010,03,06,12,13,7.90
2010,03,06,12,14,7.90
2010,03,06,12,15,7.90
2010,03,06,12,16,7.90
2010,03,06,12,17,7.90
2010,03,06,12,18,7.90
2010,03,06,12,19,7.80
2010,03,06,12,20,7.80
2010,03,06,12,21,7.90
2010,03,06,12,22,7.90
2010,03,06,12,23,7.90
2010,03,06,12,24,7.90
2010,03,06,12,25,7.90
2010,03,06,12,26,8.00
2010,03,06,12,27,8.10
2010,03,06,12,28,8.10
2010,03,06,12,29,8.10
2010,03,06,12,30,8.10
2010,03,06,12,31,8.20
2010,03,06,12,32,8.20
2010,03,06,12,33,8.20
2010,03,06,12,34,8.20
2010,03,06,12,35,8.20
2010,03,06,12,36,8.20
2010,03,06,12,37,8.30
2010,03,06,12,38,8.40
2010,03,06,12,39,8.40
2010,03,06,12,40,8.40
2010,03,06,12,41,8.50
2010,03,06,12,42,8.50
2010,03,06,12,43,8.60
2010,03,06,12,44,8.60
2010,03,06,12,45,8.70
2010,03,06,12,46,8.70
2010,03,06,12,47,8.70
2010,03,06,12,48,8.80
2010,03,06,12,49,8.80
2010,03,06,12,50,8.80
2010,03,06,12,51,8.80
2010,03,06,12,52,8.80
2010,03,06,12,53,8.80
2010,03,06,12,54,8.80
2010,03,06,12,55,8.80
2010,03,06,12,56,8.90
2010,03,06,12,57,8.90
2010,03,06,12,58,8.90
2010,03,06,12,59,8.90
2010,03,06,13,00,9.00
2010,03,06,13,01,9.00
2010,03,06,13,02,9.10
2010,03,06,13,03,9.10
2010,03,06,13,04,9.10
2010,03,06,13,05,9.10
2010,03,06,13,06,9.10
2010,03,06,13,07,9.20
2010,03,06,13,08,9.20
2010,03,06,13,09,9.30
2010,03,06,13,10,9.40
2010,03,06,13,11,9.50
2010,03,06,13,12,9.60
2010,03,06,13,13,9.70
2010,03,06,13,14,9.90
2010,03,06,13,15,10.00
2010,03,06,13,16,10.00
2010,03,06,13,17,10.00
2010,03,06,13,18,10.00
2010,03,06,13,19,10.00
2010,03,06,13,20,10.00
2010,03,06,13,21,10.00
2010,03,06,13,22,10.00
2010,03,06,13,23,9.90
2010,03,06,13,24,9.80
2010,03,06,13,25,9.80
2010,03,06,13,26,9.80
2010,03,06,13,27,9.80
2010,03,06,13,28,9.80
2010,03,06,13,29,9.80
2010,03,06,13,30,9.80
2010,03,06,13,31,9.80
2010,03,06,13,32,9.80
2010,03,06,13,33,9.80
2010,03,06,13,34,9.80
2010,03,06,13,35,9.80
2010,03,06,13,36,9.80
2010,03,06,13,37,9.80
2010,03,06,13,38,9.80
2010,03,06,13,39,9.80
2010,03,06,13,40,9.80
2010,03,06,13,41,9.80
2010,03,06,13,42,9.80
2010,03,06,13,43,9.80
2010,03,06,13,44,9.70
2010,03,06,13,45,9.70
2010,03,06,13,46,9.60
2010,03,06,13,47,9.60
2010,03,06,13,48,9.60
2010,03,06,13,49,9.60
2010,03,06,13,50,9.60
2010,03,06,13,51,9.60
2010,03,06,13,52,9.60
2010,03,06,13,53,9.60
2010,03,06,13,54,9.60
2010,03,06,13,55,9.60
2010,03,06,13,56,9.60
2010,03,06,13,57,9.70
2010,03,06,13,58,9.70
2010,03,06,13,59,9.70
2010,03,06,14,00,9.60
2010,03,06,14,01,9.60
2010,03,06,14,02,9.60
2010,03,06,14,03,9.50
2010,03,06,14,04,9.50
2010,03,06,14,05,9.40
2010,03,06,14,06,9.40
2010,03,06,14,07,9.40
2010,03,06,14,08,9.40
2010,03,06,14,09,9.40
2010,03,06,14,10,9.40
2010,03,06,14,11,9.50
2010,03,06,14,12,9.50
2010,03,06,14,13,9.50
2010,03,06,14,14,9.60
2010,03,06,14,15,9.60
2010,03,06,14,16,9.60
2010,03,06,14,17,9.60
2010,03,06,14,18,9.60
2010,03,06,14,19,9.60
2010,03,06,14,20,9.60
2010,03,06,14,21,9.60
2010,03,06,14,22,9.60
2010,03,06,14,23,9.60
2010,03,06,14,24,9.60
2010,03,06,14,25,9.60
2010,03,06,14,26,9.60
2010,03,06,14,27,9.70
2010,03,06,14,28,9.70
2010,03,06,14,29,9.70
2010,03,06,14,30,9.70
2010,03,06,14,31,9.70
2010,03,06,14,32,9.70
2010,03,06,14,33,9.70
2010,03,06,14,34,9.70
2010,03,06,14,35,9.70
2010,03,06,14,36,9.70
2010,03,06,14,37,9.70
2010,03,06,14,38,9.70
2010,03,06,14,39,9.60
2010,03,06,14,40,9.70
2010,03,06,14,41,9.70
2010,03,06,14,42,9.70
2010,03,06,14,43,9.70
2010,03,06,14,44,9.80
2010,03,06,14,45,9.80
2010,03,06,14,46,9.80
2010,03,06,14,47,9.80
2010,03,06,14,48,9.80
2010,03,06,14,49,9.80
2010,03,06,14,50,9.90
2010,03,06,14,51,9.90
2010,03,06,14,52,9.90
2010,03,06,14,53,9.90
2010,03,06,14,54,9.90
2010,03,06,14,55,9.80
2010,03,06,14,56,9.80
2010,03,06,14,57,9.80
2010,03,06,14,58,9.90
2010,03,06,14,59,9.90
2010,03,06,15,00,9.90
2010,03,06,15,01,9.90
2010,03,06,15,02,9.90
2010,03,06,15,03,10.00
2010,03,06,15,04,10.00
2010,03,06,15,05,10.00
2010,03,06,15,06,10.10
2010,03,06,15,07,10.20
2010,03,06,15,08,10.20
2010,03,06,15,09,10.30
2010,03,06,15,10,10.40
2010,03,06,15,11,10.50
2010,03,06,15,12,10.60
2010,03,06,15,13,10.60
2010,03,06,15,14,10.60
2010,03,06,15,15,10.70
2010,03,06,15,16,10.70
2010,03,06,15,17,10.70
2010,03,06,15,18,10.60
2010,03,06,15,19,10.60
2010,03,06,15,20,10.60
2010,03,06,15,21,10.60
2010,03,06,15,22,10.60
2010,03,06,15,23,10.60
2010,03,06,15,24,10.60
2010,03,06,15,25,10.60
2010,03,06,15,26,10.60
2010,03,06,15,27,10.60
2010,03,06,15,28,10.60
2010,03,06,15,29,10.60
2010,03,06,15,30,10.70
2010,03,06,15,31,10.70
2010,03,06,15,32,10.80
2010,03,06,15,33,10.80
2010,03,06,15,34,10.80
2010,03,06,15,35,10.80
2010,03,06,15,36,10.80
2010,03,06,15,37,10.90
2010,03,06,15,38,10.90
2010,03,06,15,39,11.00
2010,03,06,15,40,11.00
2010,03,06,15,41,11.00
2010,03,06,15,42,11.10
2010,03,06,15,43,11.10
2010,03,06,15,44,11.10
2010,03,06,15,45,11.10
2010,03,06,15,46,11.10
2010,03,06,15,47,11.10
2010,03,06,15,48,11.00
2010,03,06,15,49,11.00
2010,03,06,15,50,10.90
2010,03,06,15,51,10.90
2010,03,06,15,52,10.90
2010,03,06,15,53,10.90
2010,03,06,15,54,10.90
2010,03,06,15,55,10.90
2010,03,06,15,56,11.00
2010,03,06,15,57,11.00
2010,03,06,15,58,11.00
2010,03,06,15,59,11.00
2010,03,06,16,00,11.00
2010,03,06,16,01,11.00
2010,03,06,16,02,10.90
2010,03,06,16,03,10.90
2010,03,06,16,04,10.80
2010,03,06,16,05,10.80
2010,03,06,16,06,10.70
2010,03,06,16,07,10.70
2010,03,06,16,08,10.70
2010,03,06,16,09,10.70
2010,03,06,16,10,10.70
2010,03,06,16,11,10.60
2010,03,06,16,12,10.60
2010,03,06,16,13,10.60
2010,03,06,16,14,10.50
2010,03,06,16,15,10.50
2010,03,06,16,16,10.40
2010,03,06,16,17,10.40
2010,03,06,16,18,10.40
2010,03,06,16,19,10.40
2010,03,06,16,20,10.40
2010,03,06,16,21,10.30
2010,03,06,16,22,10.30
2010,03,06,16,23,10.20
2010,03,06,16,24,10.20
2010,03,06,16,25,10.20
2010,03,06,16,26,10.20
2010,03,06,16,27,10.20
2010,03,06,16,28,10.20
2010,03,06,16,29,10.20
2010,03,06,16,30,10.10
2010,03,06,16,31,10.10
2010,03,06,16,32,10.10
2010,03,06,16,33,10.10
2010,03,06,16,34,10.00
2010,03,06,16,35,10.00
2010,03,06,16,36,10.00
2010,03,06,16,37,9.90
2010,03,06,16,38,9.90
2010,03,06,16,39,9.90
2010,03,06,16,40,9.90
2010,03,06,16,41,9.90
2010,03,06,16,42,9.90
2010,03,06,16,43,9.90
2010,03,06,16,44,9.90
2010,03,06,16,45,9.90
2010,03,06,16,46,9.90
2010,03,06,16,47,9.80
2010,03,06,16,48,9.80
2010,03,06,16,49,9.80
2010,03,06,16,50,9.80
2010,03,06,16,51,9.80
2010,03,06,16,52,9.70
2010,03,06,16,53,9.70
2010,03,06,16,54,9.70
2010,03,06,16,55,9.60
2010,03,06,16,56,9.60
2010,03,06,16,57,9.60
2010,03,06,16,58,9.60
2010,03,06,16,59,9.60
2010,03,06,17,00,9.50
2010,03,06,17,01,9.50
2010,03,06,17,02,9.50
2010,03,06,17,03,9.60
2010,03,06,17,04,9.60
2010,03,06,17,05,9.60
2010,03,06,17,06,9.60
2010,03,06,17,07,9.60
2010,03,06,17,08,9.60
2010,03,06,17,09,9.60
2010,03,06,17,10,9.60
2010,03,06,17,11,9.60
2010,03,06,17,12,9.60
2010,03,06,17,13,9.60
2010,03,06,17,14,9.60
2010,03,06,17,15,9.60
2010,03,06,17,16,9.60
2010,03,06,17,17,9.60
2010,03,06,17,18,9.60
2010,03,06,17,19,9.60
2010,03,06,17,20,9.60
2010,03,06,17,21,9.60
2010,03,06,17,22,9.60
2010,03,06,17,23,9.60
2010,03,06,17,24,9.60
2010,03,06,17,25,9.60
2010,03,06,17,26,9.50
2010,03,06,17,27,9.50
2010,03,06,17,28,9.50
2010,03,06,17,29,9.50
2010,03,06,17,30,9.50
2010,03,06,17,31,9.50
2010,03,06,17,32,9.40
2010,03,06,17,33,9.40
2010,03,06,17,34,9.40
2010,03,06,17,35,9.40
2010,03,06,17,36,9.40
2010,03,06,17,37,9.40
2010,03,06,17,38,9.40
2010,03,06,17,39,9.30
2010,03,06,17,40,9.30
2010,03,06,17,41,9.30
2010,03,06,17,42,9.30
2010,03,06,17,43,9.20
2010,03,06,17,44,9.20
2010,03,06,17,45,9.20
2010,03,06,17,46,9.20
2010,03,06,17,47,9.20
2010,03,06,17,48,9.10
2010,03,06,17,49,9.10
2010,03,06,17,50,9.10
2010,03,06,17,51,9.00
2010,03,06,17,52,9.00
2010,03,06,17,53,8.90
2010,03,06,17,54,8.90
2010,03,06,17,55,8.90
2010,03,06,17,56,8.80
2010,03,06,17,57,8.80
2010,03,06,17,58,8.70
2010,03,06,17,59,8.70
2010,03,06,18,00,8.60
2010,03,06,18,01,8.60
2010,03,06,18,02,8.50